Milwaukee, WI

6:49 PM CST on December 05, 2016 (GMT -0600)
Gen Mitchell International

Weather History for KMKE - January, 2014

Change the Weather History Date:

Wednesday, January 29, 2014

  Actual Average Record
Temperature  
Mean Temperature 10 °F 22 °F  
Max Temperature 22 °F 29 °F 60 °F (2013)
Min Temperature -2 °F 16 °F -23 °F (1966)
Degree Days  
Heating Degree Days 55 43  
Month to date heating degree days 1482 1242  
Since 1 July heating degree days 4215 3802  
Cooling Degree Days 0 0  
Month to date cooling degree days 0 0  
Year to date cooling degree days 0 0  
Moisture  
Dew Point -2 °F    
Average Humidity 57    
Maximum Humidity 71    
Minimum Humidity 43    
Precipitation  
Precipitation 0.00 in 0.06 in 1.67 in (2013)
Month to date precipitation 1.10 1.65  
Year to date precipitation 1.10 1.65  
Snow  
Snow 0.00 in 0.50 in 9.60 in (1947)
Month to date snowfall 19.3 13.8  
Since 1 July snowfall 40.6 27.1  
Snow Depth 9.00 in    
Sea Level Pressure  
Sea Level Pressure 30.11 in    
Wind  
Wind Speed 13 mph (SW)    
Max Wind Speed 21 mph    
Max Gust Speed 30 mph    
Visibility 10 miles    
Events      
T = Trace of Precipitation, MM = Missing Value Source: NWS Daily Summary

Daily Weather History Graph

Daily Weather History Graph

Search for Another Location

Airport or City:

Trip Planner

Search our weather history database for the weather conditions in past years. The results will help you decide how hot, cold, wet, or windy it might be!

Date:

Astronomy

Jan. 29, 2014 Rise Set
Actual Time 7:09 AM CST 5:00 PM CST
Civil Twilight 6:39 AM CST 5:30 PM CST
Nautical Twilight 6:05 AM CST 6:04 PM CST
Astronomical Twilight 5:31 AM CST 6:38 PM CST
Moon 5:46 AM CST (1/29) 3:59 PM CST (1/29)
Length of Visible Light 10h 51m
Length of Day
9h 50m
Waning Crescent, 2% of the Moon is Illuminated
Jan 29
Waning Crescent
Jan 30
New
Feb 6
First Quarter
Feb 14
Full
Feb 22
Last Quarter

Hourly Weather History & Observations

Time (CST) Temp. Windchill Dew Point Humidity Pressure Visibility Wind Dir Wind Speed Gust Speed Precip Events Conditions
12:52 AM 1.0 °F -16.6 °F -11.0 °F 57% 30.20 in 10.0 mi West 12.7 mph - N/A   Clear
1:52 AM 1.0 °F -14.0 °F -9.9 °F 60% 30.18 in 10.0 mi West 9.2 mph 21.9 mph N/A   Clear
2:52 AM -0.0 °F -16.3 °F -9.9 °F 63% 30.17 in 10.0 mi West 10.4 mph - N/A   Clear
3:52 AM -0.9 °F -17.4 °F -9.9 °F 66% 30.16 in 10.0 mi WSW 10.4 mph - N/A   Clear
4:52 AM -0.9 °F -16.4 °F -9.9 °F 66% 30.17 in 10.0 mi WSW 9.2 mph - N/A   Clear
5:52 AM -2.0 °F -18.7 °F -9.9 °F 69% 30.17 in 10.0 mi WSW 10.4 mph - N/A   Partly Cloudy
6:52 AM -0.9 °F -16.4 °F -9.9 °F 66% 30.16 in 10.0 mi WSW 9.2 mph - N/A   Partly Cloudy
7:52 AM 1.0 °F -14.0 °F -9.0 °F 63% 30.16 in 10.0 mi WSW 9.2 mph - N/A   Partly Cloudy
8:52 AM 3.9 °F -12.2 °F -8.0 °F 58% 30.17 in 10.0 mi WSW 11.5 mph - N/A   Clear
9:52 AM 7.0 °F -7.5 °F -5.1 °F 58% 30.18 in 10.0 mi SW 10.4 mph - N/A   Clear
10:52 AM 12.9 °F -2.2 °F -4.0 °F 47% 30.18 in 10.0 mi WSW 13.8 mph 26.5 mph N/A   Clear
11:52 AM 15.1 °F -0.1 °F -2.9 °F 45% 30.15 in 10.0 mi WSW 15.0 mph 25.3 mph N/A   Clear
12:52 PM 16.0 °F 1.7 °F -2.0 °F 45% 30.13 in 10.0 mi WSW 13.8 mph 24.2 mph N/A   Clear
1:52 PM 17.1 °F 2.0 °F -0.9 °F 45% 30.12 in 10.0 mi WSW 16.1 mph 25.3 mph N/A   Partly Cloudy
2:52 PM 19.0 °F 6.1 °F -0.9 °F 42% 30.10 in 10.0 mi WSW 12.7 mph - N/A   Partly Cloudy
3:52 PM 19.0 °F 6.1 °F -0.0 °F 43% 30.10 in 10.0 mi SW 12.7 mph 23.0 mph N/A   Partly Cloudy
4:52 PM 17.1 °F 2.0 °F 1.0 °F 50% 30.09 in 10.0 mi SW 16.1 mph - N/A   Scattered Clouds
5:52 PM 16.0 °F 3.6 °F 3.0 °F 57% 30.08 in 10.0 mi SSW 10.4 mph - N/A   Scattered Clouds
6:52 PM 16.0 °F 4.4 °F 3.9 °F 59% 30.06 in 10.0 mi South 9.2 mph - N/A   Scattered Clouds
7:52 PM 17.1 °F 3.6 °F 5.0 °F 59% 30.03 in 10.0 mi South 12.7 mph - N/A   Scattered Clouds
8:52 PM 18.0 °F 4.2 °F 6.1 °F 60% 29.99 in 10.0 mi SSW 13.8 mph - N/A   Scattered Clouds
9:52 PM 19.0 °F 4.5 °F 6.1 °F 57% 29.98 in 10.0 mi SSW 16.1 mph 27.6 mph N/A   Mostly Cloudy
10:52 PM 21.9 °F 6.9 °F 6.1 °F 51% 29.95 in 10.0 mi SSW 19.6 mph 28.8 mph N/A   Mostly Cloudy
11:52 PM 21.9 °F 7.8 °F 6.1 °F 51% 29.94 in 10.0 mi SSW 17.3 mph 29.9 mph N/A   Mostly Cloudy